Terminal Aerodrome Forecast
Issued by NWS Paducah, KY

Home | Current Version | Previous Version | Text Only | Print | Product List | Glossary On
Versions: 1 2 3 4 5 6 7 8 9 10 11 12 13 14 15 16 17 18
000
FTUS43 KPAH 211000 AAA
TAFEVV
TAF AMD
KEVV 211004Z 2110/2206 24007KT 3SM -TSRA BR SCT025CB BKN040
     FM211100 27006KT P6SM SCT040 BKN070
     FM211300 30012G18KT P6SM SKC
     FM220000 33005KT P6SM SKC=

USA.gov is the U.S. government's official web portal to all federal, state and local government web resources and services.